Flag for U.S.A. Weather past 2 weeks in Hollywood, Florida, U.S.A.

Now
82 °F

Light rain. Cloudy.


Feels Like: 85 °F
Forecast: 80 / 89 °F
Wind: 14 mph from North

Location: Fort Lauderdale / Hollywood International Airport

Current Time: Aug 1, 2015 at 7:27:13 PM

Latest Report: Aug 1, 2015 at 6:53 PM


Visibility: 10 mi

Pressure: 29.96 "Hg

Humidity: 63%

Dew point: 68 °F

Location of HollywoodLocation

Historic Weather in Hollywood — Graph

°F

Hollywood temperature yesterday

Maximum temperature yesterday: 91 °F (at 12:53 PM)
Minimum temperature yesterday: 77 °F (at 3:53 PM)
Average temperature yesterday: 82 °F

Past Weeks' High & Low Weather Summary

 TemperatureHumidityPressure
High95 °F (Jul 24, 2:53 PM)100% (Jul 25, 7:53 PM)30.09 "Hg (Jul 25, 7:53 PM)
Low76 °F (Jul 17, 7:53 PM)44% (Jul 24, 2:53 PM)29.88 "Hg (Jul 26, 4:53 AM)
Average84 °F75%30.00 "Hg
* Reported Jul 17 5:53 PM — Aug 1 5:53 PM, Hollywood, Weather by CustomWeather, © 2015

Note: Actual official high and low records may vary slightly from our data, if they occured in-between our weather recording intervals... More about our weather records

Advertising

Hollywood weather history for previous 24 hours

 ConditionsComfort  
Time TempWeatherWind HumidityBarometerVisibility
5:53 PM
Sat, Aug 1
89 °FBroken clouds.8 mph57%29.94 "Hg10 mi
4:53 PM89 °FCloudy.14 mph61%29.94 "Hg10 mi
3:53 PM90 °FPartly sunny.15 mph54%29.95 "Hg10 mi
2:53 PM91 °FBroken clouds.14 mph57%29.96 "Hg10 mi
1:53 PM90 °FBroken clouds.15 mph61%29.99 "Hg10 mi
12:53 PM91 °FBroken clouds.10 mph60%30.00 "Hg10 mi
11:53 AM90 °FBroken clouds.16 mph56%30.00 "Hg10 mi
10:53 AM88 °FBroken clouds.15 mph70%30.00 "Hg10 mi
9:53 AM85 °FMostly cloudy.No wind77%29.99 "Hg10 mi
8:53 AM81 °FPartly sunny.6 mph79%30.00 "Hg10 mi
7:53 AM78 °FMore clouds than sun.6 mph79%29.99 "Hg10 mi
6:53 AM76 °FOvercast.No wind88%29.98 "Hg10 mi
5:53 AM77 °FPassing clouds.3 mph90%30.00 "Hg10 mi
4:53 AM78 °FPassing clouds.No wind82%30.00 "Hg10 mi
3:53 AM78 °FPassing clouds.No wind82%30.00 "Hg10 mi
2:53 AM78 °FPassing clouds.3 mph79%30.01 "Hg10 mi
1:53 AM77 °FPassing clouds.3 mph82%30.03 "Hg10 mi
12:53 AM79 °FPassing clouds.No wind74%30.03 "Hg10 mi
11:53 PM
Fri, Jul 31
78 °FPartly cloudy.5 mph76%30.04 "Hg10 mi
10:53 PM77 °FPartly cloudy.6 mph79%30.03 "Hg10 mi
9:53 PM77 °FMostly cloudy.5 mph77%30.03 "Hg10 mi
8:53 PM77 °FMore clouds than sun.7 mph77%30.02 "Hg10 mi
7:53 PM79 °FMostly cloudy.6 mph69%30.00 "Hg10 mi
Weather by CustomWeather, © 2015

See weather overviewHow to use our weather pages